Location: West Cummington
(42.4920°N, 72.9680°W)
Time: 18:07:50
(UTC-04:00)

Daily predictions for brighter satellites

Satellite Brightness Start Highest point End
(mag) Time Altitude Azimuth Time Altitude Azimuth Time Altitude Azimuth
FENGYUN 3A 4.0 20:44:05 10° S 20:49:26 70° WSW 20:54:50 10° NNW
COSMOS 2455 3.4 20:45:12 10° S 20:50:36 36° ESE 20:56:02 10° NE
Cosmos 1464 Rocket 4.0 20:45:11 10° N 20:51:21 81° E 20:57:32 10° S
SJ-11-01 4.3 20:48:11 10° SSE 20:52:49 69° ENE 20:57:29 10° N
Cosmos 1812 Rocket 4.4 20:50:06 10° N 20:54:08 34° ENE 20:58:09 10° SE
Meteor 2-4 Rocket 4.0 20:48:24 10° S 20:54:16 86° W 21:00:16 10° N
YAOGAN 11 4.4 20:51:13 10° S 20:55:33 68° WSW 20:59:51 10° NNW
GEOS 3 Rocket 3.9 20:51:32 10° SSE 20:56:47 68° SW 21:02:01 10° NW
Aureole 2 Rocket 2.8 20:54:51 10° SSW 20:58:44 77° WNW 21:02:15 10° NNE
Cosmos 1943 Rocket 4.3 20:56:37 10° NNE 20:59:12 13° NE 21:01:47 10° ENE
Cosmos 1302 Rocket 4.2 20:54:44 10° NNW 20:59:59 80° WSW 21:05:14 10° SSE
Cosmos 1943 4.3 20:55:39 10° SSE 21:00:05 24° ESE 21:04:32 10° NE
deb Chang Zheng 4 3.6 20:55:46 10° NNE 21:00:10 68° ESE 21:04:31 10° S
ATLAS 3B R/B 3.7 20:58:08 10° SSE 21:04:29 29° ESE 21:10:45 10° NE
H-2A R/B 2.1 21:03:43 10° SSE 21:07:58 88° WSW 21:12:23 10° NNW
H-2A R/B 4.3 21:04:29 10° SSW 21:08:10 36° W 21:11:51 10° NNW
Cosmos 2034 Rocket 4.1 21:04:52 10° N 21:11:17 86° E 21:17:36 10° S
DEBRIS 3.0 21:08:09 10° WNW 21:13:57 57° SW 21:16:01 14° SE
Cosmos 1626 Rocket 3.5 21:11:48 10° S 21:16:13 82° E 21:20:39 10° N
Abrixas rocket 4.3 21:15:45 10° W 21:18:20 20° SW 21:20:56 10° S
GRACE-1 3.9 21:16:16 10° N 21:19:08 66° E 21:21:58 10° S
Cosmos 2228 3.7 21:14:54 10° NNW 21:19:14 57° W 21:23:32 10° S
GRACE-2 3.9 21:16:43 10° N 21:19:35 66° E 21:22:25 10° S
USA 234 3.7 21:16:52 10° ESE 21:23:14 56° NNE 21:29:38 10° NW
ERS-1 Rocket 3.7 21:19:16 10° S 21:24:09 54° W 21:29:05 10° NNW
ISS -3.4 21:21:31 10° SW 21:24:43 62° SE 21:27:58 10° ENE
UNK 4.4 21:22:46 10° NNE 21:28:07 54° ESE 21:33:42 10° S
ALOS 4.4 21:26:49 10° SSW 21:30:36 24° W 21:34:24 10° NW
Milstar 3 Cent rocket 4.4 21:29:26 10° WSW 21:32:07 12° SW 21:34:25 10° SSW
Lacrosse 4 Rocket 2.4 21:30:12 14° SSE 21:32:42 25° ESE 21:36:02 10° NE
PSLV R/B 3.4 21:29:34 10° WSW 21:33:03 60° S 21:36:20 12° E
Envisat 3.1 21:28:38 10° SSE 21:33:43 84° WSW 21:38:50 10° NNW
Nimbus 7 Rocket 4.5 21:28:16 10° NNE 21:34:15 88° WNW 21:40:09 10° SSW
Cosmos 1953 Rocket 4.5 21:32:29 16° SE 21:35:15 31° E 21:39:09 10° NNE
ARGOS 3.8 21:32:57 15° SE 21:37:00 42° ENE 21:42:05 10° N
Cosmos 407 Rocket 4.3 21:33:00 13° SSE 21:37:04 32° E 21:41:39 10° NE
SPOT 5 2.6 21:34:22 12° SSE 21:38:30 84° WSW 21:42:51 10° NNW
CZ-2C R/B 3.6 21:38:08 10° WSW 21:39:01 12° W 21:39:55 10° WNW
Cosmos 2369 Rocket 2.4 21:37:14 10° NNW 21:42:51 59° ENE 21:46:52 19° SE
Cosmos 1238 4.2 21:42:05 10° S 21:45:13 80° W 21:48:14 10° N
CZ-4 SHROUD 4.0 21:43:52 13° S 21:46:31 49° W 21:49:37 10° NNW
MetOp-B 4.1 21:45:59 14° SSE 21:50:34 88° WSW 21:55:58 10° NNW
Terra 3.3 21:48:14 16° ESE 21:50:46 24° ENE 21:54:31 10° NNE
NOAA 11 4.4 21:53:20 21° SE 21:56:56 57° ENE 22:02:15 10° N
USA 81 4.0 21:58:09 10° N 22:03:29 88° E 22:07:22 19° S
Atlas Centaur 2 3.6 21:58:35 10° WSW 22:05:19 34° S 22:09:41 21° SE
Cosmos 1758 Rocket 3.6 22:06:49 26° SSE 22:09:08 58° E 22:13:25 10° NNE
Cosmos 1992 Rocket 4.3 22:04:10 10° NNW 22:09:21 63° WSW 22:12:51 20° S
CZ-4C R/B 3.7 22:07:54 29° SE 22:09:47 56° ENE 22:13:46 10° N
Cosmos 2263 4.2 22:05:39 10° NNW 22:11:16 72° ENE 22:14:27 27° SE
CARTOSAT-1 4.4 22:11:13 26° ESE 22:12:52 36° ENE 22:16:51 10° N
DELTA 2 DEB (DPAF) 4.2 22:11:57 30° SE 22:14:05 65° ENE 22:18:33 10° N
Cosmos 1900 4.4 22:11:38 10° SSW 22:16:42 63° ESE 22:21:47 10° NE
COSMOS 2406 4.2 22:15:40 25° ESE 22:16:50 26° ESE 22:21:30 10° NE
YAOGAN 6 3.3 22:17:10 23° SSW 22:19:11 49° W 22:22:51 10° NNW
Meteor 1-22 Rocket 4.2 22:15:41 10° N 22:21:17 86° W 22:24:50 25° S
Cosmos 1066 Rocket 4.4 22:16:13 10° SSW 22:21:54 74° W 22:27:44 10° N
SeaSat 1 3.5 22:21:30 18° S 22:24:38 38° WSW 22:29:15 10° NW
Geosat 4.0 22:21:02 10° NE 22:26:00 58° ESE 22:28:49 25° S
Cosmos 1825 Rocket 4.3 22:22:14 12° SSW 22:26:12 53° W 22:30:34 10° N
Cosmos 1953 3.1 22:22:56 10° N 22:26:39 36° ENE 22:27:23 33° ESE
H-2A R/B 2.2 22:26:31 33° SE 22:28:37 58° ENE 22:33:35 10° N
Cosmos 1190 Rocket 4.4 22:26:40 10° SSW 22:31:56 67° WNW 22:37:15 10° NNE
CZ-4B R/B 4.5 22:30:23 10° N 22:35:15 47° WNW 22:40:12 10° SW
COSMOS 2455 4.2 22:30:51 10° WSW 22:36:28 40° NW 22:42:08 10° NNE
SPOT 1/Viking Rocket 4.3 22:34:19 20° SSW 22:37:36 45° W 22:42:32 10° NNW
Cosmos 1842 Rocket 4.5 22:35:03 10° N 22:39:03 33° ENE 22:39:50 31° E
SAR-Lupe-2 3.4 22:40:04 62° SE 22:40:35 79° ENE 22:44:11 10° N
Cosmos 1943 4.1 22:38:16 10° SW 22:43:46 50° WNW 22:49:19 10° NNE
Cosmos 1943 Rocket 2.2 22:38:24 10° NNW 22:43:58 73° ENE 22:46:09 38° SE
Cosmos 1346 Rocket 3.9 22:41:40 18° SW 22:44:11 41° WNW 22:47:56 10° N
SL-8 R/B 4.4 22:42:59 10° WNW 22:47:43 51° NNE 22:50:59 19° E
Cosmos 676 Rocket 4.1 22:44:54 19° SSW 22:48:45 79° WNW 22:54:07 10° NNE
Cosmos 1140 Rocket 3.6 22:48:29 42° SSE 22:49:51 53° ESE 22:54:57 10° NNE
Nadezhda 4 Rocket 4.2 22:47:43 35° SSE 22:50:15 57° E 22:56:27 10° NNE
Spot 2 4.3 22:49:15 10° NNE 22:54:04 78° ESE 22:55:50 41° S
ATLAS 3B R/B 3.3 22:47:06 10° SW 22:54:46 68° NW 23:02:16 10° NNE
Cosmos 1842 3.4 22:54:29 48° SSW 22:55:26 71° W 22:59:21 10° N
DMSP B5D2-2 4.0 22:51:40 10° NNE 22:56:58 79° ESE 22:58:58 39° S
Cosmos 1656 Rocket 4.3 22:51:30 10° NNW 22:57:00 46° ENE 22:59:05 32° ESE
IGS 5A 3.4 22:58:19 59° S 22:59:03 82° WSW 23:03:15 10° NNW
ISS -1.0 22:58:35 10° WNW 23:01:23 25° NNW 23:04:11 10° NE
Cosmos 2084 3.3 23:02:08 10° NW 23:06:17 83° NE 23:06:47 68° SE
USA 234 3.7 23:03:51 34° S 23:06:17 48° SW 23:12:37 10° WNW
Lacrosse 4 Rocket 3.2 23:07:42 10° WSW 23:11:18 30° NW 23:14:57 10° N
CZ-4C R/B 3.5 23:13:38 24° E 23:13:38 24° E 23:17:15 10° ENE
Cosmos 1758 3.5 23:09:03 10° NNW 23:13:08 64° W 23:13:37 58° SW
Cosmos 614 Rocket 4.0 23:16:09 54° SE 23:16:47 58° ESE 23:21:54 10° NNE
COSMOS 2487 4.0 23:18:18 28° ENE 23:18:18 28° ENE 23:20:23 10° NE
Spot 4 4.0 23:17:06 48° SSW 23:18:11 62° WSW 23:22:56 10° NNW
Cosmos 1733 4.3 23:14:39 10° N 23:17:55 34° ENE 23:17:55 34° ENE
Meteor 2-5 Rocket 4.1 23:17:28 43° SE 23:18:37 49° E 23:24:10 10° NNE
SL-27 R/B 3.3 23:20:32 42° WNW 23:20:39 42° WNW 23:23:52 10° N
Cosmos 2221 3.6 23:17:16 10° NNE 23:21:07 31° ENE 23:21:11 31° ENE
Cosmos-2242 4.0 23:19:53 10° NNW 23:23:59 39° W 23:24:56 34° WSW
Cosmos 2369 Rocket 4.0 23:22:23 10° NW 23:26:20 20° W 23:28:41 16° SW
Terra 2.7 23:27:07 34° SW 23:28:17 39° W 23:32:45 10° NNW
Cosmos 2026 Rocket 4.3 23:28:52 41° ESE 23:30:00 46° E 23:35:45 10° NNE
Cosmos 1607 3.8 23:29:24 39° SSW 23:31:52 80° ESE 23:38:06 10° NE
USA 238 DEB 3.8 23:28:44 16° SW 23:34:34 81° NW 23:41:41 10° NE
USA 238 3.8 23:28:57 17° SW 23:34:40 81° NW 23:41:47 10° NE
Lacrosse 5 4.3 23:31:56 10° NNW 23:35:35 19° NNE 23:39:13 10° ENE
Cosmos 2208 Rocket 4.1 23:34:53 10° NNW 23:39:59 59° WSW 23:40:44 53° SW
IKONOS-2 4.4 23:42:42 88° NNW 23:42:42 88° NNW 23:46:56 10° NNW
CZ-4B R/B 3.3 23:44:03 26° ENE 23:44:03 26° ENE 23:46:45 10° NNE
Okean 3 Rocket 3.4 23:43:49 86° ENE 23:43:49 86° ENE 23:48:14 10° N
Cosmos 1470 3.0 23:41:45 10° NNW 23:45:11 65° NW 23:45:11 65° NW
Meteor 1-16 Rocket 4.3 23:43:16 10° N 23:48:52 67° ENE 23:49:54 55° SE
Cosmos 1340 3.2 23:51:21 59° NNW 23:51:21 59° NNW 23:54:35 10° N
CZ-4C R/B 4.4 23:54:17 32° NNE 23:54:17 32° NNE 23:56:16 10° N
